Tracking 29594 objects as of 21-Sep-2024
HD Live streaming from Space Station
objects crossing your sky now

GSAT0204

Track GSAT0204 now!
GSAT0204 is classified as:


NORAD ID: 40545
Int'l Code: 2015-017B
Perigee: 23,216.4 km
Apogee: 23,241.9 km
Inclination: 56.9 °
Period: 844.7 minutes
Semi major axis: 29600 km
RCS: Unknown
Launch date: March 27, 2015
Source: European Space Agency (ESA)
Launch site: FRENCH GUIANA (FRGUI)

GSAT0203 is a member of European's Galileo navigation satellite constellation.
Your satellite tracking list
Your tracking list is empty




NASA's NSSDC Master Catalog

Two Line Element Set (TLE):
1 40545U 15017B   24257.74443920 -.00000083  00000-0  00000-0 0  9997
2 40545  56.9278 359.0800 0004297 223.8405 136.1498  1.70475599 21314
Source of the keplerian elements: AFSPC